User: anonymous   Login
Location: Dalton
(34.7700°N, 84.9700°W)
Time: 20:24:22
(UTC-04:00)
Language:

Hubble Space Telescope - Orbit

View from above orbital plane
View from above orbital plane
View from above satellite
View from above satellite

Ground track
Ground track

The orbit data is extracted from the following two-line orbital elements,

1 20580U 90037B   18175.36732639 +.00000493 +00000-0 +19196-4 0  9991
2 20580 028.4702 067.6404 0002632 214.1151 101.0756 15.09055951346468
Epoch (UTC): 24 June 2018 08:48:57
Eccentricity: 0.0002632
inclination: 28.4702°
perigee height: 537 km
apogee height: 541 km
right ascension of ascending node: 67.6404°
argument of perigee: 214.1151°
revolutions per day: 15.09055951
mean anomaly at epoch: 101.0756°
orbit number at epoch: 34646

The dashed part of the orbit path shows where the satellite is in the earth's shadow,  

DLR